This demonstration page uses our WeatherBlox Daily Observations layout. Learn more.

Left ArrowRight Arrow

44.66885, -90.1718

Hourly Observations for December 7, 2022

Temp ( °F °C ) Dew Point ( °F °C ) Humidity (%) Winds ( mph kmh ) Pressure ( in mb ) Visibility ( mi km ) Precip ( " mm )
12:54 am 00:54 Cloudy 28 -2.2 23 -5 81 81 SW 3 6 30.14 1021 10 16 0.00 0.00
1:43 am 01:43 Cloudy 27 -2.8 23 -5 85 85 SSW 5 7 30.16 1021 10 16 0.00 0.00
1:54 am 01:54 Cloudy 27 -2.8 23 -5 85 85 SW 3 6 30.14 1021 9 14 0.00 0.00
2:47 am 02:47 Partly Cloudy 25 -3.9 22 -5.6 88 88 Calm 30.18 1022 8 13 0.00 0.00
2:54 am 02:54 Mostly Clear 25 -3.9 22 -5.6 88 88 Calm 30.16 1021 7 11 0.00 0.00
3:54 am 03:54 Mostly Clear with Freezing Fog 22 -5.6 21 -6.1 96 96 Calm 30.15 1021 1 1 0.00 0.00
4:10 am 04:10 Mostly Clear with Freezing Fog 21 -6.1 19 -7.2 92 92 Calm 30.21 1023 0 0 0.00 0.00
4:26 am 04:26 Mostly Clear with Mist and Fog 19 -7.2 18 -7.8 95 95 Calm 30.21 1023 1 1 0.00 0.00
4:33 am 04:33 Partly Cloudy with Mist and Fog 20 -6.7 18 -7.8 92 92 WNW 3 6 30.21 1023 1 2 0.00 0.00
4:36 am 04:36 Mostly Clear with Mist and Fog 20 -6.7 18 -7.8 92 92 WNW 5 7 30.22 1023 1 2 0.00 0.00
4:51 am 04:51 Mostly Cloudy with Mist and Fog 21 -6 19 -7 93 93 NW 3 6 30.22 1023 2 3 0.00 0.00
4:54 am 04:54 Cloudy with Mist and Fog 22 -5.6 20 -6.7 92 92 NW 5 7 30.18 1022 3 5 0.00 0.00
5:38 am 05:38 Cloudy with Mist and Fog 25 -3.9 23 -5 92 92 Calm 30.22 1023 6 10 0.00 0.00
5:54 am 05:54 Cloudy 25 -3.9 23 -5 92 92 N 3 6 30.20 1023 7 11 0.00 0.00
6:54 am 06:54 Cloudy 26 -3.3 22 -5.6 84 84 NE 7 11 30.22 1023 9 14 0.00 0.00
7:54 am 07:54 Cloudy 26 -3.3 22 -5.6 84 84 E 5 7 30.24 1024 7 11 0.00 0.00
8:54 am 08:54 Cloudy 27 -2.8 23 -5 85 85 ENE 6 9 30.24 1024 8 13 0.00 0.00
9:54 am 09:54 Cloudy 27 -2.8 23 -5 85 85 Calm 30.27 1025 9 14 0.00 0.00
10:34 am 10:34 Cloudy 28 -2.2 22 -5.6 77 77 NNW 9 15 30.33 1027 9 14 0.00 0.00
10:54 am 10:54 Cloudy 27 -2.8 21 -6.1 78 78 N 8 13 30.30 1026 9 14 0.00 0.00
11:54 am 11:54 Cloudy 26 -3.3 19 -7.2 74 74 N 9 15 30.30 1026 10 16 0.00 0.00
12:50 pm 12:50 Cloudy 25 -4 18 -8 74 74 NNW 13 20 30.35 1028 10 16 0.00 0.00
12:54 pm 12:54 Cloudy 24 -4.4 18 -7.8 77 77 N 9 15 30.33 1027 10 16 0.00 0.00
1:28 pm 13:28 Cloudy 24 -4.4 18 -7.8 77 77 N 13 20 30.37 1028 10 16 0.00 0.00
1:54 pm 13:54 Cloudy 24 -4.4 18 -7.8 77 77 N 9 15 30.34 1028 10 16 0.00 0.00
2:54 pm 14:54 Cloudy 25 -3.9 18 -7.8 74 74 N 7 11 30.36 1028 10 16 0.00 0.00
3:29 pm 15:29 Partly Cloudy 25 -3.9 18 -7.8 74 74 N 6 9 30.39 1029 10 16 0.00 0.00
3:54 pm 15:54 Mostly Cloudy 24 -4.4 18 -7.8 77 77 NNW 8 13 30.39 1029 10 16 0.00 0.00
4:54 pm 16:54 Cloudy 23 -5 16 -8.9 74 74 N 7 11 30.42 1030 10 16 0.00 0.00
5:14 pm 17:14 Partly Cloudy 21 -6.1 15 -9.4 77 77 N 6 9 30.45 1031 10 16 0.00 0.00
5:54 pm 17:54 Clear 20 -6.7 14 -10 77 77 N 5 7 30.43 1031 10 16 0.00 0.00
6:35 pm 18:35 Mostly Cloudy 20 -6.7 14 -10 77 77 NE 6 9 30.48 1032 10 16 0.00 0.00
6:54 pm 18:54 Mostly Cloudy 20 -6.7 14 -10 77 77 NE 7 11 30.45 1031 10 16 0.00 0.00
7:08 pm 19:08 Mostly Clear 20 -6.7 14 -10 77 77 ENE 9 15 30.48 1032 10 16 0.00 0.00
7:54 pm 19:54 Clear 18 -7.8 12 -11.1 77 77 NE 8 13 30.46 1032 10 16 0.00 0.00
8:54 pm 20:54 Clear 16 -8.9 11 -11.7 80 80 NE 5 7 30.48 1032 10 16 0.00 0.00
9:54 pm 21:54 Clear 15 -9.4 10 -12.2 80 80 NE 6 9 30.48 1032 10 16 0.00 0.00
10:54 pm 22:54 Clear 14 -10 10 -12.2 84 84 NE 6 9 30.48 1032 10 16 0.00 0.00
11:54 pm 23:54 Clear 14 -10 10 -12.2 84 84 ENE 6 9 30.48 1032 10 16 0.00 0.00

Powered by AerisWeather